This demonstration page uses our WeatherBlox Daily Observations layout. Learn more.

Left ArrowRight Arrow

39.51506, -84.39828

Hourly Observations for October 20, 2021

Temp ( °F °C ) Dew Point ( °F °C ) Humidity (%) Winds ( mph kmh ) Pressure ( in mb ) Visibility ( mi km ) Precip ( " mm )
12:15 am 00:15 Hazy 46 8 N/A N/A N N/A 30.19 1022 5 8 N/A
12:35 am 00:35 Clear 46 8 N/A N/A N N/A 30.20 1023 10 16 N/A
12:55 am 00:55 Clear 45 7 N/A N/A N N/A 30.20 1023 7 11 N/A
1:15 am 01:15 Clear 45 7 N/A N/A N 3 6 30.21 1023 10 16 N/A
1:35 am 01:35 Clear 45 7 N/A N/A NNE 3 6 30.21 1023 10 16 N/A
1:55 am 01:55 Clear 45 7 N/A N/A N N/A 30.20 1023 7 11 N/A
2:15 am 02:15 Mostly Cloudy with Fog 45 7 N/A N/A N N/A 30.21 1023 1 1 N/A
2:35 am 02:35 Mostly Cloudy with Fog 43 6 N/A N/A N N/A 30.21 1023 1 1 N/A
2:55 am 02:55 Partly Cloudy with Mist and Fog 43 6 N/A N/A N N/A 30.21 1023 2 3 N/A
3:15 am 03:15 Clear 43 6 N/A N/A N N/A 30.22 1023 10 16 N/A
3:35 am 03:35 Mostly Cloudy with Fog 43 6 N/A N/A N N/A 30.22 1023 1 1 N/A
3:55 am 03:55 Mostly Cloudy with Fog 43 6 N/A N/A N N/A 30.21 1023 1 1 N/A
4:15 am 04:15 Mostly Cloudy with Mist and Fog 41 5 N/A N/A N N/A 30.21 1023 1 1 N/A
4:35 am 04:35 Cloudy with Fog 41 5 N/A N/A N N/A 30.22 1023 1 1 N/A
4:55 am 04:55 Mostly Cloudy with Mist and Fog 41 5 N/A N/A N N/A 30.22 1023 1 2 N/A
5:15 am 05:15 Clear with Mist and Fog 41 5 N/A N/A N N/A 30.22 1023 4 6 N/A
5:35 am 05:35 Mostly Cloudy with Mist and Fog 41 5 N/A N/A N N/A 30.22 1023 1 1 N/A
5:55 am 05:55 Cloudy with Fog 41 5 N/A N/A N N/A 30.22 1023 0 0 N/A
6:15 am 06:15 Cloudy with Fog 41 5 N/A N/A N N/A 30.22 1023 1 1 N/A
6:35 am 06:35 Mostly Cloudy with Mist and Fog 41 5 N/A N/A N N/A 30.23 1024 1 1 N/A
6:55 am 06:55 Partly Cloudy with Mist and Fog 41 5 N/A N/A N N/A 30.23 1024 1 2 N/A
7:15 am 07:15 Mostly Cloudy with Mist and Fog 41 5 N/A N/A N N/A 30.24 1024 3 4 N/A
7:35 am 07:35 Cloudy with Mist and Fog 39 4 N/A N/A N N/A 30.24 1024 1 2 N/A
7:55 am 07:55 Cloudy with Fog 39 4 N/A N/A N N/A 30.24 1024 N/A N/A
8:15 am 08:15 Cloudy with Fog 41 5 N/A N/A N N/A 30.24 1024 N/A N/A
8:35 am 08:35 Mostly Cloudy with Mist and Fog 41 5 N/A N/A N N/A 30.25 1024 2 3 N/A
8:55 am 08:55 Hazy 45 7 N/A N/A N N/A 30.26 1025 7 11 N/A
9:15 am 09:15 Hazy 46 8 N/A N/A N N/A 30.25 1025 7 11 N/A
9:35 am 09:35 Sunny 48 9 N/A N/A N N/A 30.25 1024 7 11 N/A
9:55 am 09:55 Sunny 52 11 N/A N/A SW 3 6 30.25 1024 10 16 N/A
10:15 am 10:15 Sunny 54 12 N/A N/A SSW 3 6 30.24 1024 10 16 N/A
10:35 am 10:35 Sunny 55 13 53 11.7 92 92 SSW 7 11 30.24 1024 10 16 N/A
10:55 am 10:55 Sunny 57 14.1 53 11.4 84 84 SSW 7 11 30.23 1024 10 16 N/A
11:15 am 11:15 Sunny 61 15.9 53 11.5 75 75 SSW 7 11 30.21 1023 10 16 N/A
11:35 am 11:35 Sunny 62 16.9 53 11.6 71 71 SW 8 13 30.21 1023 10 16 N/A
11:55 am 11:55 Sunny 64 17.9 52 11.3 65 65 SW 8 13 30.20 1023 10 16 N/A
12:15 pm 12:15 Sunny 66 18.7 52 11.2 62 62 SSW 9 15 30.20 1023 10 16 N/A
12:35 pm 12:35 Sunny 67 19.5 51 10.7 57 57 SW 9 15 30.19 1022 10 16 N/A
12:55 pm 12:55 Sunny 67 19.7 52 10.9 57 57 SSW 10 17 30.19 1022 10 16 N/A
1:15 pm 13:15 Sunny 68 20.2 52 10.9 55 55 SW 8 13 30.17 1022 10 16 N/A
1:35 pm 13:35 Sunny 69 20.5 52 11 55 55 SSW 12 19 30.16 1021 10 16 N/A
1:55 pm 13:55 Sunny 70 20.9 52 11 53 53 SSW 10 17 30.14 1021 10 16 N/A
2:15 pm 14:15 Sunny 71 21.4 51 10.8 51 51 SW 13 20 30.13 1020 10 16 N/A
2:35 pm 14:35 Sunny 71 21.6 51 10.7 50 50 SW 13 20 30.12 1020 10 16 N/A
2:55 pm 14:55 Sunny 71 21.7 50 9.9 47 47 SSW 12 19 30.11 1020 10 16 N/A
3:15 pm 15:15 Sunny 72 22 51 10.3 48 48 SSW 14 22 30.11 1020 10 16 N/A
3:35 pm 15:35 Sunny 72 22 51 10.3 48 48 SW 12 19 30.10 1019 10 16 N/A
3:55 pm 15:55 Sunny 72 22.2 51 10.6 48 48 SW 13 20 30.09 1019 10 16 N/A
4:15 pm 16:15 Sunny 72 22.3 52 10.9 49 49 SSW 13 20 30.09 1019 10 16 N/A
4:35 pm 16:35 Sunny 72 22.3 49 9.4 44 44 SSW 14 22 30.09 1019 10 16 N/A
4:55 pm 16:55 Sunny 72 22.1 49 9.7 45 45 SSW 15 24 30.08 1019 10 16 N/A
5:15 pm 17:15 Sunny 72 22 49 9.7 46 46 SSW 13 20 30.08 1019 10 16 N/A
5:35 pm 17:35 Sunny 71 21.7 51 10.4 49 49 S 12 19 30.07 1018 10 16 N/A
5:55 pm 17:55 Sunny 71 21.4 50 10.2 49 49 S 13 20 30.06 1018 10 16 N/A
6:15 pm 18:15 Sunny 70 20.9 50 9.9 50 50 SSW 13 20 30.06 1018 10 16 N/A
6:35 pm 18:35 Sunny 67 19.7 50 10.1 54 54 SW 8 13 30.07 1018 10 16 N/A
6:55 pm 18:55 Clear 65 18.3 51 10.4 60 60 SSW 9 15 30.07 1018 10 16 N/A
7:15 pm 19:15 Clear 63 17.4 51 10.3 63 63 SW 6 9 30.07 1018 10 16 N/A
7:35 pm 19:35 Clear 63 17.2 50 10.2 64 64 WSW 6 9 30.07 1018 10 16 N/A
7:55 pm 19:55 Clear 62 16.7 50 10.2 66 66 SW 7 11 30.07 1018 10 16 N/A
8:15 pm 20:15 Clear 62 16.6 51 10.3 67 67 SSW 7 11 30.07 1018 10 16 N/A
8:35 pm 20:35 Clear 61 16.3 50 10.2 67 67 SSW 7 11 30.06 1018 10 16 N/A
8:55 pm 20:55 Clear 61 16.1 50 10.1 68 68 SSW 5 7 30.06 1018 10 16 N/A
9:15 pm 21:15 Clear 60 15.8 51 10.3 70 70 WSW 3 6 30.06 1018 10 16 N/A
9:35 pm 21:35 Clear 55 13 52 11.1 88 88 WSW 5 7 30.06 1018 10 16 N/A
9:55 pm 21:55 Clear 55 13 53 11.6 91 91 W 3 6 30.07 1018 10 16 N/A
10:15 pm 22:15 Clear 53 11.5 52 11.2 98 98 W 3 6 30.07 1018 10 16 N/A
10:35 pm 22:35 Clear 53 11.9 53 11.8 99 99 N N/A 30.06 1018 10 16 N/A
10:55 pm 22:55 Clear 55 12.5 53 11.9 96 96 WSW 6 9 30.07 1018 10 16 N/A
11:15 pm 23:15 Clear 57 13.8 53 11.5 86 86 WSW 6 9 30.07 1018 10 16 N/A
11:35 pm 23:35 Clear 56 13.6 52 11.3 86 86 W 5 7 30.08 1019 10 16 N/A
11:55 pm 23:55 Clear 55 12.5 52 11.1 91 91 SW 3 6 30.08 1019 10 16 N/A

Powered by AerisWeather